Wind_Speed
31 32 33 34 34 35 36 36 37 37 37 39 39 39 39 39 39 39 39 39 39 38 39 39 39 40 40 40 40 40 40 40 40 41 41 42 42 42 43 44 44 44 44 44
33 33 34 35 36 37 37 38 38 38 39 40 40 40 40 40 40 40 40 40 39 39 39 39 40 40 41 41 41 41 42 42 42 42 43 43 43 44 45 45 45 45 45 45
34 34 34 36 37 38 38 39 39 39 40 42 42 42 41 40 41 41 40 40 39 39 39 39 40 40 41 42 42 42 42 42 43 42 43 43 44 45 46 46 46 46 46 46
35 35 36 36 37 38 38 38 39 40 41 42 41 42 40 40 40 40 40 40 40 40 40 40 40 40 41 42 42 42 43 43 42 42 43 43 44 46 47 48 48 48 48 48
36 36 36 36 36 37 38 39 40 40 42 42 42 43 40 40 40 39 39 39 40 40 40 40 40 40 40 41 42 42 43 43 43 43 44 45 46 47 47 48 49 49 49 48
34 34 35 35 35 36 37 38 39 40 41 43 41 42 42 40 39 39 39 39 40 40 39 39 39 39 40 41 41 42 42 43 43 44 45 46 46 47 48 48 48 49 50 50
34 33 33 34 35 36 37 38 39 41 41 42 41 41 41 39 38 38 38 39 39 39 39 39 39 39 39 39 40 41 42 43 44 44 44 45 46 47 48 49 49 49 49 50
35 34 34 34 35 36 37 38 39 40 41 41 40 40 38 37 36 36 37 37 38 39 39 39 39 39 39 39 40 40 42 43 44 44 45 46 46 46 47 49 49 50 50 51
35 35 34 34 35 36 36 36 36 38 40 40 40 38 36 36 35 34 34 35 36 36 37 38 39 39 40 40 41 41 42 43 44 46 46 47 47 47 48 49 50 50 51 52
35 35 35 34 34 34 35 35 35 36 38 39 39 38 35 34 33 34 34 34 35 36 36 38 39 40 41 41 41 42 42 43 44 45 46 47 48 48 48 49 49 50 51 51
34 35 35 34 34 34 34 34 34 36 36 37 38 37 36 35 35 35 35 35 36 37 37 38 39 40 41 42 42 42 43 43 43 44 45 46 47 48 48 49 50 50 50 51
33 34 34 34 33 34 33 33 33 35 37 38 39 39 36 36 36 36 36 36 37 38 39 39 39 40 40 41 42 43 44 44 44 45 45 46 47 48 49 49 50 50 50 50
33 34 35 34 33 33 34 33 34 35 37 38 39 39 37 37 37 38 38 38 38 38 39 39 40 40 40 41 42 43 44 44 44 44 45 46 46 47 48 49 49 49 49 50
33 34 34 34 34 34 34 34 34 35 37 38 39 39 38 38 39 39 39 38 39 39 39 39 40 41 41 41 42 42 43 43 44 44 44 44 45 46 46 47 47 47 47 48
35 36 35 34 34 33 34 34 35 35 37 38 37 38 37 38 39 39 38 38 38 38 38 38 39 40 40 41 41 42 42 43 43 43 43 44 44 44 45 45 45 46 46 46
35 36 36 34 34 33 34 34 34 35 35 36 36 36 36 37 38 38 37 37 37 37 37 38 38 38 39 40 40 41 41 41 42 43 43 44 44 44 44 45 45 45 46 45
33 34 35 34 34 35 35 33 33 34 34 35 35 35 35 37 37 37 37 37 37 37 37 37 38 38 38 39 39 39 40 40 41 41 42 42 43 43 43 44 44 44 44 45
32 32 33 33 33 35 35 34 33 33 32 33 34 34 34 34 35 36 36 35 35 35 36 36 37 36 37 37 38 38 39 39 40 40 41 41 41 41 41 42 42 43 43 43
32 32 32 32 34 35 34 33 32 32 32 32 34 34 35 34 34 34 35 35 35 35 35 36 36 36 36 36 37 37 38 38 39 39 40 40 40 41 41 41 42 41 42 42
33 32 32 32 33 33 32 31 31 32 32 32 33 33 33 33 34 34 34 34 34 35 35 35 36 36 36 36 36 36 37 37 38 38 38 39 40 40 40 40 40 40 41 41
32 32 32 32 33 32 30 31 31 32 33 32 33 33 32 33 34 34 34 34 34 35 35 35 35 35 35 36 36 36 36 37 37 37 37 38 38 38 38 39 39 39 40 41
31 31 31 31 31 31 30 31 31 32 32 32 32 33 33 33 33 34 34 34 35 34 35 35 35 35 35 35 35 35 35 36 36 36 36 36 37 37 37 37 38 38 38 39
30 30 30 31 31 31 30 31 30 30 30 30 31 32 33 33 33 33 34 34 35 35 35 35 35 35 35 35 35 35 35 35 35 35 35 36 36 36 36 36 36 36 36 36
30 30 31 31 30 30 30 31 31 31 31 30 31 32 33 33 34 34 34 34 35 36 36 35 35 35 35 35 35 34 34 33 34 34 34 35 35 35 34 34 35 35 34 34
29 30 30 30 29 30 30 31 32 32 32 31 30 31 32 33 33 34 34 35 35 35 36 36 35 35 34 34 34 34 33 33 33 33 33 33 33 33 32 32 32 32 32 32
28 28 28 28 28 29 29 30 31 31 32 31 31 31 31 32 32 33 34 35 35 35 36 36 35 35 34 33 33 33 33 33 32 32 32 32 32 32 31 31 30 30 30 30
Wind_Direction
272 270 270 270 269 269 269 268 268 268 268 268 267 266 265 265 265 265 266 265 265 265 265 265 265 265 265 265 266 265 266 265 263 262 263 265 265 266 267 269 269 270 270 269
273 272 273 271 270 269 269 268 268 268 269 269 269 267 266 265 265 265 265 264 264 265 265 266 266 265 265 266 266 266 266 266 266 265 264 264 265 266 267 268 268 269 269 269
275 275 274 272 271 270 269 268 269 270 270 270 270 268 267 266 266 265 265 265 264 265 266 267 266 266 266 266 266 265 265 266 266 266 265 265 265 265 266 267 268 268 269 269
276 276 274 273 272 272 270 268 269 270 271 270 270 270 266 267 267 267 267 266 265 266 266 267 267 267 266 265 265 265 265 265 265 265 265 265 266 266 266 267 267 267 268 268
279 278 275 273 273 272 272 270 270 271 271 270 269 269 267 269 269 268 268 267 267 267 267 267 267 267 265 264 264 264 265 263 263 264 264 265 267 267 267 268 268 268 268 269
280 278 276 274 274 273 273 272 271 271 271 270 270 271 271 271 272 271 270 269 268 268 268 267 267 266 265 265 265 265 265 264 264 264 265 266 267 268 268 269 269 270 270 270
279 278 276 274 274 273 272 272 273 273 272 273 272 272 273 274 274 273 272 272 271 270 268 268 268 267 267 267 266 266 265 264 264 265 266 267 268 269 269 269 270 271 271 272
281 278 276 275 274 274 273 272 273 274 275 275 274 274 275 275 275 274 274 273 272 272 270 269 267 267 267 267 267 267 266 266 266 266 267 268 269 269 269 270 271 271 271 272
282 280 278 276 276 276 274 272 272 273 273 274 274 274 274 274 275 274 273 272 272 271 271 269 267 267 267 267 268 268 268 268 267 267 268 269 269 270 270 270 270 270 271 271
281 280 278 278 276 275 274 273 272 272 274 275 275 274 274 274 274 273 273 271 270 270 269 269 268 267 268 268 269 269 269 269 270 270 270 270 270 271 271 271 271 271 272 272
282 280 279 278 277 277 275 274 273 271 272 273 275 275 275 276 276 275 274 272 270 270 270 270 270 270 270 269 269 270 270 271 271 271 271 271 271 271 272 272 272 272 273 273
283 282 280 279 278 277 276 275 274 271 270 270 273 275 277 277 277 276 275 274 273 271 271 271 271 272 271 271 271 271 271 271 271 272 272 272 272 271 272 273 273 273 274 274
286 283 283 281 279 278 275 274 272 272 272 272 273 276 278 276 275 275 275 274 273 273 271 271 271 271 271 272 271 271 272 271 271 272 272 272 272 273 273 273 273 274 274 274
288 284 282 282 281 279 276 274 273 272 273 274 275 276 276 275 274 274 274 275 274 273 272 272 271 270 271 272 272 272 272 272 272 272 272 272 272 273 274 274 274 274 275 275
287 285 283 281 279 278 276 275 273 273 274 275 276 275 275 274 273 274 274 275 275 274 273 273 273 273 273 273 273 273 272 272 272 272 272 272 272 273 274 274 274 274 275 275
289 287 284 281 278 277 276 276 276 275 275 275 275 275 274 273 273 274 274 274 273 274 274 274 274 273 274 274 273 273 273 272 272 272 272 273 273 274 275 275 275 274 275 276
290 288 286 284 281 278 277 279 279 278 276 276 275 275 275 273 273 273 274 273 273 274 275 275 275 274 274 274 273 273 273 273 273 273 273 274 274 274 275 276 276 275 276 276
291 289 288 286 283 281 282 282 282 281 278 275 275 275 275 274 274 274 274 275 275 275 277 277 277 276 275 274 273 274 274 274 273 274 274 275 275 275 275 276 276 276 276 277
291 290 289 288 286 284 283 283 283 282 280 277 276 277 277 276 275 276 276 277 278 278 278 278 278 277 276 275 274 274 274 274 274 274 275 275 276 275 276 276 277 277 277 277
291 289 288 287 285 286 285 283 282 282 281 279 278 277 277 276 276 276 277 277 278 279 278 278 278 278 277 276 276 276 275 275 274 275 275 276 277 277 277 277 278 278 277 277
291 290 287 286 285 286 285 283 281 281 282 281 280 279 279 278 277 277 277 278 279 279 279 280 279 279 278 278 277 276 276 276 276 275 275 276 277 277 277 277 278 278 277 276
291 292 289 287 286 286 285 284 282 282 281 281 280 281 281 279 278 278 277 277 279 280 280 280 279 279 279 279 278 278 277 276 276 276 276 277 277 278 279 278 278 278 278 278
291 290 288 286 285 285 284 283 283 282 281 280 281 281 280 280 279 279 279 279 280 281 281 281 280 280 279 279 279 278 278 277 277 276 277 278 278 279 279 279 279 279 279 278
289 288 287 285 284 284 284 283 282 282 283 282 282 281 280 280 279 279 279 281 281 280 280 280 280 280 280 279 279 278 277 277 277 276 277 278 278 279 279 278 278 279 278 278
291 289 287 285 283 282 283 283 282 281 282 283 283 283 282 282 281 281 281 282 281 281 280 280 280 280 280 280 279 277 277 277 277 276 277 278 279 278 278 278 278 278 278 279
291 289 287 286 285 284 282 283 283 283 284 285 285 285 285 284 283 282 283 284 283 282 281 281 281 281 281 280 278 277 276 277 277 276 277 278 279 278 278 278 278 278 279 279
Height
5715 5714 5713 5713 5712 5711 5709 5709 5708 5708 5707 5705 5705 5705 5706 5705 5705 5705 5705 5704 5704 5704 5703 5703 5703 5703 5703 5703 5703 5703 5704 5703 5703 5703 5703 5703 5703 5703 5702 5701 5700 5700 5699 5699
5706 5705 5706 5703 5701 5700 5698 5698 5697 5697 5696 5694 5694 5694 5695 5694 5694 5694 5694 5693 5693 5693 5692 5692 5692 5692 5692 5692 5692 5692 5692 5692 5692 5692 5692 5692 5691 5691 5690 5689 5688 5688 5687 5687
5696 5697 5695 5692 5690 5689 5688 5687 5687 5686 5685 5683 5682 5683 5684 5684 5683 5683 5683 5682 5682 5682 5682 5681 5681 5681 5681 5681 5681 5681 5681 5681 5680 5680 5680 5680 5679 5679 5679 5678 5677 5676 5675 5674
5685 5685 5683 5681 5679 5678 5677 5677 5676 5674 5673 5671 5671 5669 5673 5673 5672 5672 5672 5672 5671 5671 5671 5670 5670 5670 5670 5669 5669 5669 5669 5669 5669 5668 5668 5668 5668 5667 5667 5665 5664 5663 5663 5662
5675 5674 5672 5671 5670 5668 5666 5665 5664 5662 5661 5659 5660 5658 5661 5661 5661 5661 5661 5660 5660 5660 5659 5659 5658 5658 5658 5657 5657 5657 5657 5657 5657 5657 5656 5656 5655 5655 5654 5653 5652 5651 5650 5649
5664 5662 5661 5660 5659 5657 5655 5654 5652 5651 5649 5648 5650 5648 5649 5650 5650 5650 5649 5649 5648 5648 5647 5647 5647 5646 5646 5646 5646 5645 5645 5645 5645 5645 5644 5644 5643 5642 5641 5640 5639 5638 5637 5636
5653 5651 5650 5649 5647 5646 5645 5644 5641 5639 5637 5637 5638 5636 5638 5639 5639 5638 5637 5636 5636 5636 5635 5635 5635 5635 5635 5634 5634 5634 5634 5633 5633 5633 5632 5632 5631 5630 5628 5627 5626 5625 5623 5622
5641 5641 5639 5638 5637 5635 5634 5633 5632 5630 5628 5627 5626 5626 5629 5628 5627 5626 5626 5625 5624 5624 5623 5623 5623 5623 5623 5623 5623 5622 5622 5621 5621 5620 5620 5619 5618 5617 5616 5614 5613 5612 5610 5609
5630 5629 5629 5627 5626 5625 5623 5621 5621 5619 5616 5615 5615 5616 5617 5616 5615 5615 5615 5614 5613 5612 5612 5611 5611 5611 5611 5611 5611 5610 5609 5609 5608 5607 5607 5606 5605 5604 5602 5601 5600 5598 5597 5596
5619 5618 5618 5616 5615 5614 5613 5612 5610 5608 5606 5604 5604 5605 5606 5606 5605 5605 5604 5603 5602 5601 5600 5600 5600 5599 5599 5599 5598 5598 5597 5596 5596 5595 5594 5593 5592 5590 5589 5588 5586 5585 5584 5582
5609 5607 5607 5606 5605 5604 5603 5602 5600 5598 5596 5595 5594 5597 5596 5595 5595 5594 5593 5592 5591 5590 5589 5589 5588 5587 5587 5586 5586 5585 5585 5584 5583 5582 5581 5579 5578 5577 5576 5574 5573 5571 5570 5568
5599 5597 5596 5596 5595 5593 5592 5591 5590 5589 5587 5585 5584 5587 5586 5585 5583 5583 5582 5580 5579 5579 5578 5577 5576 5575 5575 5574 5574 5573 5572 5571 5570 5569 5567 5566 5565 5563 5562 5560 5559 5557 5556 5554
5589 5587 5585 5585 5586 5584 5582 5580 5579 5578 5576 5574 5574 5577 5575 5574 5572 5571 5571 5569 5568 5567 5566 5566 5565 5564 5563 5562 5561 5560 5559 5558 5557 5556 5554 5553 5552 5550 5548 5547 5545 5544 5542 5540
5579 5577 5577 5575 5573 5571 5570 5570 5569 5567 5565 5564 5564 5565 5565 5562 5561 5560 5559 5558 5557 5556 5555 5554 5553 5552 5551 5550 5549 5548 5546 5545 5544 5543 5541 5540 5538 5537 5535 5533 5531 5530 5528 5526
5569 5567 5566 5565 5563 5561 5560 5559 5558 5557 5556 5554 5554 5553 5553 5551 5550 5549 5548 5547 5545 5544 5543 5542 5541 5540 5539 5538 5536 5535 5534 5533 5531 5530 5528 5527 5525 5523 5521 5520 5518 5516 5515 5513
5559 5557 5555 5555 5553 5551 5549 5549 5547 5546 5545 5543 5542 5542 5542 5539 5538 5537 5536 5535 5534 5533 5532 5531 5530 5528 5527 5525 5524 5523 5521 5520 5518 5517 5515 5514 5512 5510 5508 5506 5504 5503 5501 5500
5550 5547 5545 5543 5542 5540 5538 5540 5538 5536 5534 5533 5531 5532 5530 5528 5527 5526 5525 5524 5523 5521 5520 5519 5518 5516 5515 5513 5512 5510 5509 5507 5506 5504 5503 5501 5499 5498 5496 5493 5492 5490 5488 5486
5540 5537 5534 5532 5532 5529 5532 5529 5526 5525 5524 5522 5520 5520 5519 5517 5516 5515 5513 5512 5511 5510 5508 5507 5506 5504 5503 5501 5500 5498 5497 5495 5494 5492 5491 5489 5487 5485 5483 5481 5479 5477 5475 5474
5531 5528 5525 5522 5519 5517 5519 5518 5516 5513 5513 5512 5510 5509 5507 5506 5504 5504 5502 5501 5500 5498 5497 5496 5494 5493 5491 5490 5488 5487 5485 5483 5482 5480 5479 5477 5475 5473 5471 5469 5467 5465 5463 5461
5522 5519 5516 5513 5510 5508 5510 5508 5505 5503 5502 5502 5499 5498 5496 5495 5494 5494 5492 5490 5489 5487 5486 5484 5483 5481 5480 5478 5477 5475 5473 5472 5470 5468 5467 5465 5463 5461 5459 5457 5455 5453 5451 5449
5512 5509 5506 5503 5500 5498 5499 5497 5495 5495 5494 5491 5488 5487 5485 5484 5483 5482 5481 5479 5478 5476 5475 5473 5471 5470 5468 5467 5465 5464 5462 5460 5458 5456 5455 5453 5451 5449 5447 5445 5443 5441 5439 5437
5502 5500 5497 5494 5492 5492 5489 5487 5486 5484 5482 5480 5478 5476 5475 5473 5472 5470 5469 5468 5466 5465 5464 5462 5460 5459 5457 5455 5454 5452 5450 5448 5446 5445 5443 5441 5439 5437 5435 5433 5431 5429 5427 5425
5493 5491 5487 5486 5485 5482 5479 5477 5476 5474 5472 5470 5468 5466 5464 5462 5461 5460 5458 5457 5456 5454 5453 5451 5449 5447 5446 5443 5442 5440 5439 5437 5435 5434 5432 5430 5428 5426 5424 5422 5420 5417 5415 5413
5483 5481 5478 5476 5475 5472 5470 5467 5466 5464 5462 5460 5458 5455 5453 5452 5450 5449 5448 5446 5445 5443 5441 5440 5438 5436 5434 5432 5430 5428 5427 5425 5424 5422 5420 5418 5417 5415 5412 5411 5409 5407 5404 5402
5473 5471 5468 5466 5465 5462 5460 5458 5455 5454 5452 5450 5448 5445 5443 5441 5440 5438 5437 5435 5434 5432 5430 5428 5426 5425 5423 5421 5419 5417 5415 5414 5412 5411 5409 5407 5406 5404 5402 5400 5398 5396 5394 5392
5464 5462 5459 5457 5455 5453 5451 5448 5446 5444 5442 5440 5438 5436 5433 5431 5429 5428 5426 5424 5422 5420 5418 5416 5415 5413 5411 5409 5407 5406 5404 5403 5401 5400 5398 5397 5395 5393 5392 5390 5388 5385 5384 5382